FW8892 Weather Reports


Display with metric or nautical units.
time (UTC)temp
F
wind
direction
speed
MPH
gust
MPH
rain 1hr
in
rain 24hr
in
rain mn
in
humidity
%
barometer
mb
20260505235027 62 0 0.0 2.0 0.06 0.10 0.10 91 1008.5
20260505234545 62 90 1.0 2.0 0.09 0.10 0.10 91 1008.5
20260505234028 62 0 0.0 2.0 0.10 0.10 0.10 90 1008.4
20260505233528 62 0 0.0 2.0 0.09 0.09 0.09 90 1008.6
20260505233054 62 0 0.0 2.0 0.09 0.09 0.09 89 1008.7
20260505232528 62 0 0.0 1.0 0.07 0.07 0.07 88 1008.8
20260505232028 63 0 0.0 2.0 0.07 0.07 0.07 87 1008.6
20260505231541 63 0 0.0 2.0 0.07 0.07 0.07 85 1008.4
20260505231028 63 0 0.0 3.0 0.07 0.07 0.07 84 1008.3
20260505230527 64 130 1.0 3.0 0.07 0.07 0.07 82 1008.3
20260505230054 65 172 0.0 5.0 0.07 0.07 0.07 81 1008.4
20260505225527 65 0 0.0 8.0 0.04 0.04 0.04 78 1008.5
20260505225028 66 0 2.0 11.0 0.03 0.03 0.03 75 1008.8
20260505224545 67 205 3.0 12.0 0.01 0.01 0.01 72 1009.0
20260505224028 67 216 5.0 12.0 0.00 0.00 0.00 68 1008.8
20260505223530 68 172 4.0 9.0 0.00 0.00 0.00 67 1008.7
20260505223048 69 186 3.0 12.0 0.00 0.00 0.00 68 1008.5
20260505222529 70 186 4.0 18.0 0.00 0.00 0.00 65 1008.7
20260505222027 70 193 4.0 20.0 0.00 0.00 0.00 61 1008.8
20260505221544 71 163 9.0 20.0 0.00 0.00 0.00 59 1008.9
20260505221027 71 182 6.0 21.0 0.00 0.00 0.00 60 1008.8
20260505220528 72 207 8.0 21.0 0.00 0.00 0.00 59 1008.9
20260505220045 72 191 7.0 21.0 0.00 0.00 0.00 58 1008.9
20260505215526 72 209 5.0 16.0 0.00 0.00 0.00 59 1008.9
20260505215027 72 178 6.0 18.0 0.00 0.00 0.00 59 1009.0
20260505214541 72 155 5.0 18.0 0.00 0.00 0.00 58 1008.7
20260505214027 72 223 7.0 21.0 0.00 0.00 0.00 56 1008.6
20260505213528 73 177 8.0 21.0 0.00 0.00 0.00 55 1008.6
20260505213048 74 123 8.0 21.0 0.00 0.00 0.00 55 1008.8
20260505212527 75 189 9.0 17.0 0.00 0.00 0.00 55 1008.9
20260505212029 75 184 3.0 16.0 0.00 0.00 0.00 57 1008.9
20260505211548 74 205 4.0 17.0 0.00 0.00 0.00 56 1009.0
20260505211026 74 157 7.0 17.0 0.00 0.00 0.00 55 1008.7
20260505210528 74 185 6.0 18.0 0.00 0.00 0.00 57 1008.9
20260505210048 75 188 7.0 23.0 0.00 0.00 0.00 55 1008.9
20260505205527 75 182 9.0 23.0 0.00 0.00 0.00 55 1008.7
20260505205027 76 218 10.0 22.0 0.00 0.00 0.00 54 1008.7
20260505204544 76 209 8.0 19.0 0.00 0.00 0.00 56 1008.7
20260505204027 76 181 9.0 21.0 0.00 0.00 0.00 55 1008.8
20260505203527 75 177 8.0 21.0 0.00 0.00 0.00 56 1008.5
20260505203053 75 147 5.0 18.0 0.00 0.00 0.00 57 1008.5
20260505202531 75 209 8.0 18.0 0.00 0.00 0.00 57 1008.5
20260505202029 75 153 7.0 18.0 0.00 0.00 0.00 57 1008.6
20260505201550 75 177 8.0 18.0 0.00 0.00 0.00 56 1008.9
20260505201030 75 232 7.0 18.0 0.00 0.00 0.00 55 1008.9
20260505200530 75 177 7.0 21.0 0.00 0.00 0.00 57 1009.0
20260505200048 75 165 9.0 21.0 0.00 0.00 0.00 55 1009.3
20260505195530 75 196 8.0 19.0 0.00 0.00 0.00 57 1009.5
20260505195030 75 161 6.0 19.0 0.00 0.00 0.00 58 1009.4
20260505194549 75 226 6.0 23.0 0.00 0.00 0.00 55 1009.3
20260505194031 75 184 7.0 23.0 0.00 0.00 0.00 56 1009.3
20260505193530 75 82 9.0 23.0 0.00 0.00 0.00 55 1009.5
20260505193046 74 209 7.0 15.0 0.00 0.00 0.00 57 1009.7
20260505192534 73 213 6.0 21.0 0.00 0.00 0.00 58 1009.8
20260505192030 73 190 8.0 21.0 0.00 0.00 0.00 55 1009.9
20260505191555 73 215 8.0 24.0 0.00 0.00 0.00 57 1009.9
20260505191031 73 256 9.0 24.0 0.00 0.00 0.00 56 1010.0
20260505190529 74 219 9.0 20.0 0.00 0.00 0.00 57 1010.0
20260505190050 74 172 10.0 22.0 0.00 0.00 0.00 57 1010.2
20260505185530 74 144 10.0 22.0 0.00 0.00 0.00 56 1010.3
20260505185030 74 223 9.0 17.0 0.00 0.00 0.00 56 1010.1
20260505184544 74 186 9.0 21.0 0.00 0.00 0.00 56 1010.2
20260505184030 74 163 10.0 21.0 0.00 0.00 0.00 57 1010.5
20260505183530 73 207 8.0 19.0 0.00 0.00 0.00 59 1010.4
20260505183110 72 182 7.0 19.0 0.00 0.00 0.00 59 1010.4
20260505182528 72 134 9.0 20.0 0.00 0.00 0.00 59 1010.2
20260505182030 71 161 8.0 20.0 0.00 0.00 0.00 61 1010.2
20260505181543 71 166 9.0 20.0 0.00 0.00 0.00 59 1010.3
20260505181030 70 213 5.0 15.0 0.00 0.00 0.00 62 1010.2
20260505180530 70 221 7.0 16.0 0.00 0.00 0.00 62 1010.3
20260505180047 70 212 6.0 20.0 0.00 0.00 0.00 65 1010.3
20260505175531 70 192 5.0 20.0 0.00 0.00 0.00 65 1010.4
20260505175028 70 208 9.0 18.0 0.00 0.00 0.00 66 1010.3
20260505174543 70 238 5.0 15.0 0.00 0.00 0.00 69 1010.3
20260505174030 69 216 7.0 15.0 0.00 0.00 0.00 69 1010.2
20260505173530 68 173 5.0 16.0 0.00 0.00 0.00 71 1010.3
20260505173052 68 161 5.0 16.0 0.00 0.00 0.00 71 1010.6
20260505172530 67 213 6.0 15.0 0.00 0.00 0.00 71 1010.6
20260505172031 67 183 6.0 15.0 0.00 0.00 0.00 71 1010.6
20260505171557 67 178 5.0 15.0 0.00 0.00 0.00 72 1010.7
20260505171027 67 194 4.0 16.0 0.00 0.00 0.00 72 1010.9
20260505170527 67 175 5.0 16.0 0.00 0.00 0.00 73 1010.8
20260505170044 67 179 5.0 13.0 0.00 0.00 0.00 73 1010.9
20260505165530 67 203 3.0 11.0 0.00 0.00 0.00 75 1011.0
20260505165026 66 202 5.0 13.0 0.00 0.00 0.00 74 1011.1
20260505164548 66 185 4.0 13.0 0.00 0.00 0.00 73 1011.2
20260505164030 66 174 5.0 13.0 0.00 0.00 0.00 73 1011.4
20260505163526 66 238 5.0 11.0 0.00 0.00 0.00 72 1011.4
20260505163042 66 217 5.0 16.0 0.00 0.00 0.00 71 1011.5
20260505162527 67 175 4.0 16.0 0.00 0.00 0.00 71 1011.7
20260505162027 67 173 6.0 12.0 0.00 0.00 0.00 70 1011.7
20260505161603 67 221 5.0 12.0 0.00 0.00 0.00 70 1011.8
20260505161027 67 211 6.0 16.0 0.00 0.00 0.00 70 1011.9
20260505160530 67 200 4.0 16.0 0.00 0.00 0.00 69 1012.0
20260505153050 68 196 5.0 15.0 0.00 0.00 0.00 69 1012.4
20260505152529 68 138 6.0 15.0 0.00 0.00 0.00 69 1012.2
20260505152030 67 224 4.0 14.0 0.00 0.00 0.00 70 1012.3
20260505151543 67 173 5.0 14.0 0.00 0.00 0.00 69 1012.1
20260505151029 67 213 4.0 13.0 0.00 0.00 0.00 70 1012.2
20260505150529 67 215 6.0 14.0 0.00 0.00 0.00 70 1012.1
20260505140528 64 182 4.0 11.0 0.00 0.00 0.00 72 1011.8
20260505125027 61 180 3.0 8.0 0.00 0.00 0.00 77 1011.5
20260505124544 60 178 3.0 8.0 0.00 0.00 0.00 77 1011.5
20260505124029 60 148 4.0 8.0 0.00 0.00 0.00 78 1011.5
20260505123526 60 190 2.0 8.0 0.00 0.00 0.00 78 1011.5
20260505123045 59 150 2.0 8.0 0.00 0.00 0.00 78 1011.5
20260505122528 59 184 2.0 5.0 0.00 0.00 0.00 79 1011.4
20260505122030 59 180 2.0 5.0 0.00 0.00 0.00 78 1011.5
20260505121543 59 164 1.0 6.0 0.00 0.00 0.00 78 1011.5
20260505121029 59 184 2.0 6.0 0.00 0.00 0.00 78 1011.5
20260505120529 58 138 1.0 6.0 0.00 0.00 0.00 79 1011.5
20260505120100 58 163 0.0 6.0 0.00 0.00 0.00 79 1011.5
20260505115532 58 162 2.0 6.0 0.00 0.00 0.00 79 1011.5
20260505115029 58 174 1.0 5.0 0.00 0.00 0.00 79 1011.5
20260505114538 58 200 1.0 4.0 0.00 0.00 0.00 79 1011.3
20260505114031 58 168 1.0 4.0 0.00 0.00 0.00 79 1011.3
20260505113528 58 169 1.0 4.0 0.00 0.00 0.00 79 1011.1
20260505113048 57 182 1.0 4.0 0.00 0.00 0.00 79 1011.0
20260505112528 57 183 1.0 5.0 0.00 0.00 0.00 79 1011.0
20260505112028 57 184 1.0 5.0 0.00 0.00 0.00 78 1010.8
20260505111547 57 0 1.0 5.0 0.00 0.00 0.00 79 1010.8
20260505111027 57 186 1.0 5.0 0.00 0.00 0.00 79 1010.8
20260505110529 57 142 1.0 6.0 0.00 0.00 0.00 79 1010.8
20260505102028 57 0 0.0 3.0 0.00 0.00 0.00 78 1010.7
20260505101552 57 162 0.0 3.0 0.00 0.00 0.00 77 1010.7
20260505101029 57 171 0.0 4.0 0.00 0.00 0.00 77 1010.6
20260505100527 57 169 1.0 4.0 0.00 0.00 0.00 76 1010.5
20260505100048 58 0 0.0 3.0 0.00 0.00 0.00 76 1010.7
20260505095526 58 169 1.0 5.0 0.00 0.00 0.00 76 1010.7
20260505095029 58 165 0.0 5.0 0.00 0.00 0.00 76 1010.6
20260505094547 58 173 1.0 6.0 0.00 0.00 0.00 75 1010.6
20260505094028 58 165 1.0 6.0 0.00 0.00 0.00 75 1010.6
20260505093529 58 185 1.0 5.0 0.00 0.00 0.00 75 1010.6
20260505093046 58 0 2.0 5.0 0.00 0.00 0.00 75 1010.6
20260505092529 58 191 2.0 5.0 0.00 0.00 0.00 75 1010.4
20260505092028 59 183 2.0 6.0 0.00 0.00 0.00 74 1010.3
20260505091543 59 196 2.0 6.0 0.00 0.00 0.00 74 1010.4
20260505091029 59 159 2.0 5.0 0.00 0.00 0.00 74 1010.3
20260505090528 59 188 2.0 7.0 0.00 0.00 0.00 74 1010.2
20260505090045 59 161 2.0 7.0 0.00 0.00 0.00 74 1010.4
20260505085529 58 195 1.0 7.0 0.00 0.00 0.00 75 1010.3
20260505085030 58 183 3.0 6.0 0.00 0.00 0.00 75 1010.6
20260505084541 58 186 2.0 6.0 0.00 0.00 0.00 75 1010.6
20260505084029 58 219 2.0 5.0 0.00 0.00 0.00 75 1010.8
20260505083529 58 182 2.0 4.0 0.00 0.00 0.00 75 1010.8
20260505083050 58 181 0.0 4.0 0.00 0.00 0.00 75 1010.7
20260505082529 58 185 1.0 4.0 0.00 0.00 0.00 74 1010.4
20260505082028 58 172 1.0 5.0 0.00 0.00 0.00 74 1010.4
20260505081545 58 171 1.0 6.0 0.00 0.00 0.00 74 1010.3
20260505081030 59 178 1.0 6.0 0.00 0.00 0.00 74 1010.2
20260505080529 59 169 1.0 5.0 0.00 0.00 0.00 73 1010.2
20260505080043 59 184 1.0 5.0 0.00 0.00 0.00 72 1010.1
20260505075529 59 185 2.0 5.0 0.00 0.00 0.00 72 1010.1
20260505075030 60 174 0.0 4.0 0.00 0.00 0.00 71 1010.2
20260505074542 60 175 1.0 5.0 0.00 0.00 0.00 71 1010.2
20260505074029 60 189 2.0 5.0 0.00 0.00 0.00 71 1010.2
20260505073527 60 186 2.0 5.0 0.00 0.00 0.00 70 1010.1
20260505073102 61 178 1.0 6.0 0.00 0.00 0.00 70 1010.2
20260505072528 61 165 2.0 6.0 0.00 0.00 0.00 69 1010.3
20260505072027 61 155 2.0 6.0 0.00 0.00 0.00 69 1010.3
20260505071552 61 163 2.0 9.0 0.00 0.00 0.00 69 1010.3
20260505071027 61 195 3.0 9.0 0.00 0.00 0.00 68 1010.4
20260505070530 61 188 2.0 10.0 0.00 0.00 0.00 68 1010.3
20260505070046 62 184 2.0 10.0 0.00 0.00 0.00 68 1010.3
20260505065529 62 165 3.0 10.0 0.00 0.00 0.00 68 1010.3
20260505065029 62 166 3.0 9.0 0.00 0.00 0.00 68 1010.3
20260505064547 62 178 3.0 8.0 0.00 0.00 0.00 68 1010.3
20260505064029 62 219 2.0 7.0 0.00 0.00 0.00 67 1010.5
20260505063528 62 163 2.0 6.0 0.00 0.00 0.00 67 1010.6
20260505063044 62 180 3.0 6.0 0.00 0.00 0.00 67 1010.7
20260505062527 62 200 2.0 6.0 0.00 0.00 0.00 67 1010.8
20260505062029 62 169 2.0 7.0 0.00 0.00 0.00 67 1010.8
20260505061550 62 184 2.0 7.0 0.00 0.00 0.00 66 1010.7
20260505061029 62 205 2.0 7.0 0.00 0.00 0.00 66 1010.8
20260505060530 62 161 2.0 6.0 0.00 0.00 0.00 66 1010.8
20260505060042 62 168 2.0 6.0 0.00 0.00 0.00 66 1010.8
20260505055530 63 204 2.0 9.0 0.00 0.00 0.00 66 1010.9
20260505055030 63 180 2.0 9.0 0.00 0.00 0.00 66 1011.0
20260505054622 63 189 2.0 7.0 0.00 0.00 0.00 65 1011.0
20260505054030 63 192 2.0 6.0 0.00 0.00 0.00 65 1011.0
20260505053529 63 197 2.0 6.0 0.00 0.00 0.00 65 1011.2
20260505053100 63 204 2.0 6.0 0.00 0.00 0.00 65 1011.0
20260505052529 63 200 2.0 9.0 0.00 0.00 0.00 65 1011.2
20260505052030 63 188 2.0 9.0 0.00 0.00 0.00 65 1011.1
20260505051547 63 226 2.0 7.0 0.00 0.00 0.00 64 1011.1
20260505051032 63 192 1.0 6.0 0.00 0.00 0.00 64 1011.1
20260505050529 64 196 2.0 6.0 0.00 0.00 0.00 63 1011.1
20260505041555 66 192 3.0 9.0 0.00 0.00 0.00 60 1010.8
20260505041030 66 194 3.0 9.0 0.00 0.00 0.00 59 1010.8
20260505040529 66 202 2.0 8.0 0.00 0.00 0.00 60 1010.7
20260505040047 66 249 4.0 8.0 0.00 0.00 0.00 59 1010.7
20260505035530 66 242 3.0 11.0 0.00 0.00 0.00 59 1010.7
20260505035029 66 231 4.0 11.0 0.00 0.00 0.00 59 1010.7
20260505034543 67 175 3.0 7.0 0.00 0.00 0.00 59 1010.6
20260505034026 67 171 3.0 11.0 0.00 0.00 0.00 58 1010.6
20260505033529 67 152 3.0 12.0 0.00 0.00 0.00 58 1010.7
20260505033042 67 220 5.0 12.0 0.00 0.00 0.00 58 1010.6
20260505032529 67 201 4.0 12.0 0.00 0.00 0.00 58 1010.5
20260505032028 67 192 2.0 10.0 0.00 0.00 0.00 58 1010.5
20260505031556 67 200 3.0 11.0 0.00 0.00 0.00 58 1010.4
20260505031029 67 188 2.0 11.0 0.00 0.00 0.00 57 1010.3
20260505030529 67 110 3.0 11.0 0.00 0.00 0.00 58 1010.1
20260505030047 67 180 5.0 11.0 0.00 0.00 0.00 58 1010.1
20260505025529 68 189 4.0 10.0 0.00 0.00 0.00 58 1010.1
20260505025030 68 183 4.0 11.0 0.00 0.00 0.00 58 1010.2
20260505024546 68 190 5.0 11.0 0.00 0.00 0.00 57 1010.1
20260505024029 68 189 4.0 10.0 0.00 0.00 0.00 57 1010.0
20260505023529 68 203 3.0 10.0 0.00 0.00 0.00 57 1010.0
20260505023056 68 200 4.0 10.0 0.00 0.00 0.00 57 1010.0
20260505022529 68 180 3.0 9.0 0.00 0.00 0.00 57 1010.0
20260505022028 68 184 3.0 10.0 0.00 0.00 0.00 57 1010.1
20260505021543 68 178 3.0 11.0 0.00 0.00 0.00 56 1010.0
20260505021029 68 225 4.0 11.0 0.00 0.00 0.00 56 1010.0
20260505020529 68 215 2.0 7.0 0.00 0.00 0.00 56 1010.0
20260505020041 69 192 3.0 7.0 0.00 0.00 0.00 55 1009.9
20260505015529 69 175 2.0 7.0 0.00 0.00 0.00 54 1009.9
20260505015030 69 173 3.0 8.0 0.00 0.00 0.00 54 1009.9
20260505014551 70 189 2.0 8.0 0.00 0.00 0.00 53 1009.9
20260505014031 70 219 2.0 8.0 0.00 0.00 0.00 53 1009.8
20260505013529 70 194 3.0 11.0 0.00 0.00 0.00 53 1009.9
20260505013104 70 192 4.0 11.0 0.00 0.00 0.00 52 1009.9
20260505012529 70 196 4.0 9.0 0.00 0.00 0.00 52 1009.9
20260505012029 71 168 3.0 10.0 0.00 0.00 0.00 52 1009.9
20260505011548 71 202 4.0 11.0 0.00 0.00 0.00 52 1009.9
20260505011029 71 152 4.0 12.0 0.00 0.00 0.00 51 1009.8
20260505010529 71 198 5.0 12.0 0.00 0.00 0.00 51 1009.8
20260505010044 71 205 3.0 11.0 0.00 0.00 0.00 51 1009.8
20260505005529 72 178 3.0 10.0 0.00 0.00 0.00 51 1009.6
20260505005029 72 177 5.0 10.0 0.00 0.00 0.00 51 1009.7
20260505004548 72 188 3.0 10.0 0.00 0.00 0.00 50 1009.7
20260505004029 72 190 3.0 10.0 0.00 0.00 0.00 50 1009.7
20260505003529 73 203 4.0 10.0 0.00 0.00 0.00 50 1009.7
20260505003047 73 180 4.0 10.0 0.00 0.00 0.00 50 1009.8
20260505002530 73 192 5.0 10.0 0.00 0.00 0.00 50 1009.8
20260505002030 73 192 2.0 8.0 0.00 0.00 0.00 50 1009.9
20260505001551 74 195 2.0 8.0 0.00 0.00 0.00 49 1009.8
20260505001029 74 177 4.0 10.0 0.00 0.00 0.00 49 1009.8
20260505000529 74 201 5.0 12.0 0.00 0.00 0.00 48 1009.9
20260505000105 75 235 4.0 13.0 0.00 0.00 0.00 48 1009.9
20260504235529 75 188 3.0 13.0 0.00 0.00 0.00 48 1009.8